Location: Newark
(53.3333°N, 83.7500°E)
Time: 20:42:23
(UTC+00:00)

N. Korean satellite - Pass Details

Date: 24 September 2020
Orbit: 452 x 505 km, 97.2° (Epoch: 28 October)

Event Time Altitude Azimuth Distance (km) Brightness Sun altitude
Rises 22:59:31 0° 27° (NNE) 2,608 10.9 -12.1°
Reaches altitude 10° 23:02:17 10° 50° (NE) 1,709 10.4 -11.7°
Maximum altitude 23:04:37 16° 89° (E) 1,364 10.1 -11.4°
Drops below altitude 10° 23:06:55 10° 129° (SE) 1,682 9.8 -11.1°
Sets 23:09:37 0° 151° (SSE) 2,544 10.4 -10.7°
